Temperature
20 20 19 18 17 16 16 16 16 16 16 15 15 15 15 14 14 14 14 14 14 14 14 13 13 13 13 13 13 13 13 13 14 14 14 15 15 15 14 14 13 12 12
21 20 19 18 17 16 16 16 15 15 15 15 15 14 14 14 14 14 14 13 13 13 13 13 13 13 13 13 13 13 13 14 14 14 14 14 13 14 14 14 13 13 12
21 20 19 18 17 16 16 16 15 15 15 15 14 14 14 13 13 13 13 13 13 13 13 13 13 13 13 13 13 13 14 14 14 13 13 12 12 13 14 14 13 13 12
20 20 19 18 17 16 16 15 15 15 15 14 14 14 13 13 13 13 14 14 14 14 13 13 13 13 13 13 13 14 14 14 13 13 12 12 12 13 14 14 13 13 12
19 19 19 18 17 16 15 15 15 15 15 14 14 13 13 13 13 13 14 14 14 14 14 14 14 14 14 14 14 14 14 14 13 12 12 12 13 13 14 14 14 13 13
18 19 19 18 17 16 16 15 16 15 15 14 14 13 13 13 13 13 13 14 14 14 14 14 14 14 14 14 14 14 14 14 13 12 12 12 13 13 13 13 13 13 13
17 18 18 18 17 17 16 16 16 16 15 14 14 13 13 13 13 13 13 14 14 14 14 14 14 14 14 14 14 14 14 13 13 12 12 12 12 13 13 13 13 13 13
18 18 18 18 17 17 16 16 16 16 15 15 14 13 13 13 13 13 13 14 14 14 14 14 14 14 14 14 14 14 14 13 13 12 12 12 12 12 12 12 12 12 12
18 18 18 17 17 17 17 16 16 16 16 15 14 14 14 13 13 13 13 14 14 14 14 14 14 14 14 13 13 13 13 13 13 12 12 12 12 12 12 12 12 12 12
18 17 17 17 17 17 16 16 16 16 16 15 15 15 14 14 13 13 13 14 14 14 14 14 13 13 13 13 13 13 13 13 12 12 12 12 12 12 12 12 12 12 12
17 17 16 16 16 16 16 16 16 16 16 16 15 15 14 14 13 13 14 14 14 14 14 13 13 13 13 13 13 13 12 12 12 12 12 12 12 12 12 12 12 12 12
17 17 16 16 16 15 15 16 16 16 16 16 16 15 14 14 13 13 13 14 14 13 13 13 13 13 12 12 12 12 12 12 12 12 12 12 12 12 11 11 12 11 11
18 17 17 16 16 15 15 15 15 15 15 15 15 15 14 13 13 13 13 13 13 13 13 13 12 12 12 12 12 12 12 12 12 12 12 12 11 11 11 11 10 10 10
19 18 17 17 16 16 15 15 15 15 15 15 14 14 14 13 13 13 13 13 13 12 12 12 12 12 12 12 12 12 12 12 11 11 11 11 11 10 10 10 10 10 9
20 19 18 17 16 16 15 15 15 14 14 14 14 13 13 13 13 13 12 12 12 12 12 12 12 12 12 13 13 12 12 12 11 11 11 10 10 10 9 9 9 9 9
20 19 19 18 17 16 16 15 15 15 14 14 14 14 13 13 13 13 12 12 12 12 12 12 12 12 13 13 12 12 12 12 11 10 10 10 10 9 9 8 8 8 8
20 20 19 18 17 17 16 16 15 15 14 14 14 14 13 13 13 13 12 12 12 12 12 12 12 12 12 12 12 12 12 11 11 10 9 9 9 9 8 8 8 8 8
20 20 19 19 18 17 17 16 16 15 15 14 14 14 14 13 13 13 13 12 12 12 12 12 12 12 12 12 12 12 11 11 10 9 9 8 8 8 8 8 8 7 7
20 20 20 19 18 17 17 17 16 15 15 14 14 14 13 13 13 13 13 13 12 12 12 12 12 12 12 12 12 12 11 11 10 9 8 8 8 7 7 7 7 7 7
19 19 19 19 19 18 17 16 16 15 15 14 14 14 13 13 13 13 13 12 12 12 12 12 12 12 11 11 11 11 11 10 10 9 8 7 7 7 7 7 7 7 6
19 19 19 19 19 18 17 16 16 16 15 14 14 14 13 13 13 13 13 12 12 12 12 12 12 11 11 11 11 11 10 9 8 8 8 7 7 6 6 6 6 6 6
18 18 19 19 18 18 17 17 16 16 15 14 14 14 13 13 13 13 13 12 12 12 12 11 11 11 11 10 10 10 9 8 7 7 7 7 6 6 5 5 5 5 5
17 18 18 18 18 18 17 16 16 15 15 14 14 13 13 13 13 13 12 12 12 11 11 11 11 11 10 10 10 9 8 7 7 7 6 6 5 5 5 4 4 4 4
17 17 17 17 18 17 17 16 16 16 15 15 14 13 13 13 12 12 12 12 11 11 11 11 10 10 10 10 9 8 7 7 6 6 6 5 4 4 3 3 3 3 3
17 17 17 17 17 17 16 16 16 16 15 15 14 13 12 12 12 12 11 11 11 11 10 10 10 10 9 9 8 7 7 6 5 4 4 4 4 3 3 3 2 2 1
16 16 16 16 16 16 15 15 15 15 15 15 14 13 12 12 12 11 11 11 10 10 10 9 9 9 9 8 7 7 6 5 4 3 2 2 2 3 3 2 2 1 -0
Wind_Speed
12 16 19 18 17 16 15 15 14 14 14 15 16 16 15 14 13 12 11 10 10 10 11 11 10 11 13 14 14 13 11 10 8 6 4 4 5 7 7 6 7 6 7
17 19 20 19 18 16 16 15 14 13 13 14 15 15 14 13 12 12 11 11 12 12 14 14 14 14 15 14 13 11 9 8 5 3 3 1 3 6 7 7 7 7 6
19 20 19 19 18 17 16 14 13 12 12 14 15 15 14 13 13 12 11 11 12 13 14 15 15 15 14 12 11 10 8 6 4 6 8 5 5 6 6 6 6 5 5
18 19 19 20 18 17 15 14 12 12 12 13 15 15 14 13 13 12 11 11 12 12 13 13 13 13 12 10 9 8 7 4 6 9 7 5 7 7 5 6 5 6 5
16 18 21 21 19 17 15 13 12 12 13 14 15 14 14 13 12 12 12 12 12 12 12 12 12 11 9 8 7 6 5 4 8 11 5 6 11 7 6 5 5 6 6
16 19 22 21 20 18 16 14 13 13 13 14 15 14 13 12 11 11 12 12 11 11 11 10 10 9 7 6 5 5 4 6 11 9 2 9 10 7 6 6 6 6 6
16 19 21 21 20 18 16 14 13 13 13 14 14 13 12 10 10 11 12 11 10 9 9 8 7 7 5 4 4 4 4 7 11 8 5 11 10 7 6 7 7 7 7
16 17 19 20 20 19 17 15 13 13 14 14 13 12 11 9 9 10 12 11 9 8 7 6 6 5 4 3 3 3 3 6 9 7 8 12 9 7 7 8 9 10 10
16 15 15 17 17 19 18 16 14 13 13 13 12 11 10 8 7 10 13 11 8 6 5 5 5 5 4 3 2 2 4 7 10 6 9 11 10 8 8 9 9 10 11
13 15 13 15 16 15 15 17 16 15 13 12 11 11 11 9 9 12 13 11 8 6 6 6 5 4 3 2 1 2 5 9 7 6 12 11 10 9 9 10 10 12 13
10 12 14 12 14 15 15 16 16 15 14 13 12 12 11 10 12 13 13 12 9 8 7 5 4 3 4 3 1 3 6 7 6 11 11 10 9 8 10 11 12 13 14
8 10 12 13 12 12 14 15 14 13 13 13 13 13 12 12 11 13 15 13 11 9 8 6 5 4 5 4 3 2 6 10 10 11 11 10 9 10 11 12 13 13 13
11 9 10 12 12 10 7 12 10 12 13 14 15 17 14 9 12 13 11 11 11 10 9 8 6 3 4 4 4 5 6 6 8 12 12 12 11 10 11 12 13 13 13
14 12 9 10 11 11 9 8 8 7 9 9 12 18 11 6 6 8 8 11 11 9 7 6 4 6 5 5 6 6 5 4 7 12 13 14 13 12 12 12 13 13 12
12 14 11 10 10 10 9 7 7 6 7 9 10 13 12 5 5 4 4 7 7 9 6 4 4 5 5 5 5 5 5 6 6 12 13 15 14 12 12 12 12 12 12
8 13 13 12 11 10 9 8 7 6 8 10 9 11 13 10 5 4 4 4 6 8 7 6 6 4 4 4 3 3 4 6 6 11 14 14 13 12 11 11 11 11 12
9 10 13 14 13 12 11 10 7 6 9 7 9 13 13 12 9 6 5 5 6 9 8 7 6 5 3 2 2 2 3 4 4 5 13 14 12 10 8 8 9 11 12
9 9 12 13 13 14 12 10 8 6 7 7 11 13 14 13 13 8 6 5 8 9 7 4 4 3 3 4 3 3 2 2 2 4 9 11 10 7 5 5 7 10 11
11 10 10 12 12 12 12 10 9 7 8 8 10 11 13 14 15 10 6 6 10 6 4 4 4 3 3 3 3 1 1 1 1 3 5 8 7 4 2 2 6 9 11
12 11 11 12 13 11 10 9 8 7 7 6 7 9 13 13 15 12 7 8 9 6 5 6 5 4 3 2 3 2 1 1 1 2 2 5 7 5 3 1 4 7 10
11 11 11 12 13 10 9 10 9 8 5 5 5 8 12 13 14 11 7 7 7 6 6 7 6 5 3 3 2 2 1 2 2 3 2 1 3 5 4 1 3 5 8
12 11 11 10 12 12 10 10 7 6 5 4 5 6 10 12 13 11 9 8 8 7 7 6 6 4 2 3 2 1 2 2 2 3 3 3 2 1 1 1 4 6 8
13 12 10 11 11 12 11 9 8 7 5 4 5 5 7 11 12 11 10 9 8 7 7 6 5 5 3 2 4 3 2 1 3 3 3 2 2 1 1 3 6 6 8
13 12 12 11 11 11 14 14 15 10 7 6 6 6 8 9 10 12 11 10 9 8 8 6 6 4 4 3 2 2 2 3 1 4 4 2 1 2 4 4 6 8 10
9 10 11 11 10 11 14 16 15 10 7 9 10 11 9 8 9 11 12 10 10 8 8 7 6 4 3 3 3 1 1 1 2 2 4 5 4 4 4 4 6 9 11
7 7 8 10 10 11 13 15 14 14 14 16 14 13 10 8 8 9 11 10 9 8 8 7 6 6 4 4 3 2 1 1 0 1 4 4 5 5 6 6 6 7 10
Wind_Direction
128 136 144 138 133 128 122 118 115 114 116 117 116 111 105 99 93 86 79 73 66 67 67 73 88 95 95 90 84 77 70 63 57 42 36 47 58 50 42 24 3 33 55
133 139 144 138 134 129 124 120 117 116 119 122 119 114 108 102 95 87 82 77 72 71 69 72 77 82 82 82 80 73 67 61 44 354 322 276 102 64 38 22 15 18 25
131 138 142 138 135 131 126 122 120 121 125 127 123 118 112 105 98 91 86 84 78 76 73 72 74 76 75 75 73 69 65 51 2 324 304 259 148 75 39 16 6 3 1
131 140 142 137 135 132 128 125 125 127 131 132 127 121 116 110 102 93 90 90 86 82 80 78 76 76 74 73 70 66 61 31 336 321 328 70 96 70 36 9 357 352 341
134 141 137 140 137 134 130 128 128 130 133 133 131 126 122 117 108 100 96 95 93 89 87 83 80 78 76 73 68 64 51 359 325 307 312 76 85 56 33 7 348 340 331
134 132 140 141 140 137 134 132 132 134 136 135 135 131 129 124 116 110 107 105 100 96 91 86 82 80 78 73 64 54 33 339 317 304 44 81 81 48 24 4 352 340 327
133 133 144 144 144 142 140 139 139 140 142 141 139 138 135 130 126 125 121 117 110 101 91 83 80 79 77 68 54 40 7 321 304 300 58 81 69 40 14 6 1 350 339
130 135 146 149 148 147 146 145 146 146 147 147 146 145 138 132 132 140 135 128 121 110 94 84 79 74 67 55 40 19 329 306 313 334 77 80 55 29 15 16 18 21 22
132 137 146 154 154 154 153 152 153 152 152 154 154 148 137 129 132 146 146 140 132 120 103 92 84 79 73 62 38 341 307 304 302 318 69 64 42 25 23 24 26 26 29
136 144 153 160 162 161 160 160 160 159 159 160 155 145 140 141 142 147 149 145 139 126 113 102 96 99 105 105 67 305 308 305 293 47 72 55 39 32 35 41 42 46 48
146 151 159 165 166 167 168 168 165 165 166 163 158 158 163 177 167 157 149 146 142 134 127 122 129 151 156 164 199 303 318 326 26 73 62 52 45 45 54 58 56 55 52
171 169 166 169 168 170 171 165 171 173 173 177 176 176 195 207 169 148 146 148 150 149 147 157 177 202 194 182 218 327 18 10 32 75 59 60 61 66 69 64 59 53 47
180 185 177 171 168 169 163 166 176 177 175 195 188 181 199 179 132 139 150 156 165 168 172 180 194 188 96 79 37 53 49 16 41 76 65 69 71 71 71 66 58 49 41
176 180 183 172 167 170 167 172 174 173 173 190 187 179 185 158 158 167 168 175 177 173 163 158 140 109 85 69 49 32 30 36 71 91 76 77 76 74 71 64 55 44 34
178 172 180 178 171 171 170 175 176 174 173 180 179 175 167 151 164 157 147 143 136 133 127 112 98 90 74 57 45 34 22 25 64 99 92 86 82 77 70 61 50 38 26
196 172 174 179 177 174 176 178 180 176 174 174 171 177 168 163 164 142 131 118 110 108 110 108 92 87 74 61 32 31 30 27 49 107 113 99 91 82 70 56 42 29 16
214 184 175 179 179 178 182 184 184 178 174 171 169 179 174 165 154 136 126 119 117 119 108 93 84 79 72 36 14 52 53 47 24 111 126 121 111 98 79 54 31 17 6
220 205 184 179 180 180 182 185 184 182 176 172 170 176 176 163 149 134 127 128 126 116 104 96 92 87 72 35 9 15 19 67 358 96 117 123 120 112 94 53 23 5 355
220 213 191 172 177 181 180 180 184 185 181 173 171 173 172 159 145 136 129 129 127 113 105 104 70 72 68 27 326 310 22 45 98 105 115 118 113 103 70 355 7 354 344
223 214 196 177 178 183 178 174 178 186 181 168 163 162 159 152 143 135 132 130 123 117 116 111 105 76 60 359 308 305 188 123 157 145 136 142 157 179 212 330 5 354 342
234 221 207 187 183 182 178 175 178 182 169 150 150 145 143 140 138 135 134 130 131 131 136 132 123 105 52 354 358 335 288 213 193 163 159 159 194 199 201 248 9 354 339
241 232 217 201 185 183 180 174 167 151 124 106 112 116 127 132 133 137 135 135 131 126 118 115 118 116 85 31 52 17 357 325 294 220 183 201 224 200 200 348 346 326 322
234 235 225 211 196 182 166 146 125 100 85 91 102 103 109 124 130 134 133 130 127 123 122 119 119 126 141 80 59 89 109 284 322 310 249 217 197 239 284 303 300 296 306
229 226 224 214 200 180 162 157 159 166 162 161 141 125 119 123 130 133 133 130 126 122 123 122 112 114 126 136 110 68 110 124 92 316 319 314 325 306 294 292 293 289 291
240 227 216 208 197 174 164 162 166 164 140 132 130 131 128 130 132 134 134 129 127 124 120 118 116 108 106 122 124 118 114 111 188 206 280 302 319 312 315 299 288 280 277
252 241 215 196 186 167 161 161 165 159 147 146 148 148 143 142 138 135 131 127 122 121 121 121 119 113 102 97 92 94 104 127 301 243 271 294 296 289 300 284 276 271 269
Height
1498 1500 1502 1505 1507 1509 1511 1513 1515 1517 1518 1520 1521 1522 1522 1523 1524 1524 1524 1524 1525 1526 1527 1527 1528 1530 1531 1531 1532 1533 1533 1534 1534 1534 1534 1534 1534 1534 1535 1535 1535 1536 1536
1497 1500 1502 1505 1507 1509 1511 1513 1515 1516 1518 1520 1521 1522 1523 1523 1523 1524 1524 1524 1525 1526 1527 1528 1529 1530 1531 1532 1533 1533 1534 1534 1534 1535 1535 1534 1535 1535 1535 1535 1535 1535 1536
1497 1500 1502 1505 1507 1509 1511 1513 1515 1516 1518 1519 1521 1522 1523 1523 1524 1524 1524 1525 1526 1527 1528 1529 1530 1531 1532 1533 1534 1534 1534 1535 1535 1535 1535 1535 1535 1536 1536 1536 1536 1535 1536
1497 1500 1503 1505 1507 1509 1511 1513 1514 1516 1518 1520 1521 1522 1523 1524 1524 1525 1525 1526 1526 1527 1528 1530 1531 1532 1533 1534 1534 1535 1535 1535 1536 1536 1537 1537 1537 1537 1536 1536 1536 1536 1536
1498 1500 1503 1506 1508 1510 1511 1513 1514 1516 1518 1520 1521 1523 1524 1525 1525 1526 1526 1527 1527 1528 1529 1530 1532 1533 1534 1534 1535 1535 1536 1536 1537 1537 1538 1538 1538 1538 1537 1537 1536 1536 1536
1499 1500 1503 1506 1508 1510 1512 1513 1515 1516 1518 1520 1521 1523 1524 1525 1526 1527 1527 1528 1528 1529 1530 1531 1532 1533 1534 1535 1536 1536 1537 1537 1538 1538 1539 1539 1538 1538 1538 1537 1537 1537 1536
1499 1500 1503 1506 1508 1510 1512 1513 1515 1516 1518 1520 1521 1523 1524 1526 1527 1528 1528 1529 1530 1530 1531 1532 1533 1534 1535 1536 1537 1537 1538 1538 1538 1539 1540 1539 1539 1538 1538 1537 1537 1537 1536
1499 1500 1503 1505 1508 1510 1511 1513 1514 1516 1518 1519 1521 1523 1524 1526 1527 1528 1529 1530 1531 1531 1532 1533 1534 1535 1536 1536 1537 1538 1538 1538 1538 1540 1540 1539 1538 1538 1537 1536 1536 1536 1536
1499 1500 1503 1505 1507 1509 1511 1513 1514 1516 1517 1519 1521 1522 1524 1526 1527 1528 1529 1530 1531 1532 1533 1534 1535 1535 1536 1537 1537 1538 1538 1538 1539 1539 1539 1538 1538 1537 1536 1535 1535 1535 1534
1499 1499 1501 1504 1506 1508 1510 1512 1514 1515 1517 1518 1520 1522 1524 1525 1527 1528 1529 1530 1531 1532 1533 1534 1535 1536 1537 1537 1538 1538 1538 1538 1538 1538 1537 1537 1536 1536 1535 1534 1534 1533 1533
1500 1500 1501 1502 1504 1507 1509 1511 1513 1514 1516 1517 1519 1521 1523 1525 1527 1528 1529 1530 1531 1532 1533 1534 1535 1536 1536 1537 1537 1537 1537 1537 1537 1536 1536 1535 1535 1534 1533 1533 1532 1532 1531
1498 1500 1501 1502 1504 1506 1508 1509 1511 1513 1515 1516 1518 1520 1522 1524 1526 1527 1528 1529 1530 1531 1533 1534 1535 1535 1535 1536 1536 1536 1536 1536 1536 1534 1533 1533 1533 1532 1531 1530 1530 1529 1529
1496 1498 1500 1502 1503 1505 1506 1507 1509 1511 1513 1515 1517 1519 1521 1523 1525 1526 1528 1528 1529 1530 1531 1533 1533 1534 1535 1535 1535 1535 1534 1534 1533 1531 1531 1531 1530 1529 1528 1528 1527 1527 1526
1492 1495 1498 1500 1501 1503 1504 1506 1508 1509 1511 1513 1516 1518 1520 1522 1524 1525 1526 1527 1528 1529 1530 1532 1532 1533 1533 1533 1533 1533 1532 1531 1530 1529 1528 1527 1527 1526 1526 1525 1525 1524 1524
1490 1491 1494 1497 1499 1501 1502 1504 1506 1508 1509 1512 1515 1517 1518 1520 1522 1524 1526 1527 1527 1528 1529 1530 1531 1531 1531 1532 1531 1531 1530 1529 1528 1526 1525 1524 1524 1524 1523 1523 1522 1522 1521
1488 1488 1490 1493 1496 1498 1500 1501 1503 1505 1507 1509 1511 1514 1516 1518 1520 1522 1524 1525 1526 1527 1528 1529 1529 1529 1530 1530 1529 1529 1528 1526 1525 1523 1522 1521 1521 1521 1521 1520 1520 1519 1518
1485 1486 1487 1489 1492 1494 1496 1498 1500 1502 1505 1507 1508 1511 1514 1516 1518 1520 1522 1523 1524 1525 1526 1527 1527 1528 1528 1528 1527 1526 1525 1524 1523 1521 1519 1518 1518 1518 1518 1518 1517 1516 1515
1480 1482 1483 1484 1487 1489 1491 1493 1496 1499 1501 1503 1505 1508 1511 1513 1515 1517 1519 1521 1522 1523 1524 1525 1525 1526 1526 1525 1525 1524 1522 1521 1520 1519 1517 1516 1516 1515 1515 1515 1514 1513 1512
1474 1477 1478 1479 1481 1484 1486 1489 1492 1495 1497 1499 1502 1504 1507 1510 1512 1514 1516 1518 1520 1521 1522 1523 1523 1524 1524 1523 1522 1521 1520 1518 1517 1516 1516 1515 1514 1514 1513 1512 1511 1510 1509
1467 1470 1472 1473 1475 1479 1482 1484 1487 1490 1493 1495 1497 1500 1503 1505 1507 1510 1513 1515 1516 1518 1519 1520 1521 1522 1521 1521 1520 1518 1517 1516 1515 1514 1513 1513 1512 1511 1510 1509 1508 1507 1505
1459 1461 1464 1466 1468 1472 1475 1477 1480 1483 1486 1490 1493 1495 1498 1500 1503 1506 1508 1511 1513 1515 1516 1517 1518 1519 1519 1518 1517 1515 1514 1513 1512 1512 1511 1511 1510 1509 1507 1506 1505 1503 1501
1450 1453 1456 1459 1461 1464 1467 1470 1474 1477 1481 1484 1487 1489 1492 1495 1498 1502 1504 1507 1509 1511 1513 1514 1515 1516 1516 1515 1514 1513 1512 1512 1510 1509 1509 1508 1508 1506 1505 1503 1502 1500 1497
1443 1446 1449 1452 1455 1458 1461 1464 1468 1471 1474 1477 1480 1483 1486 1490 1494 1498 1501 1503 1506 1508 1510 1511 1512 1513 1513 1512 1512 1512 1510 1509 1508 1507 1506 1505 1505 1503 1502 1500 1497 1495 1492
1436 1439 1442 1446 1449 1452 1454 1455 1459 1462 1465 1468 1472 1476 1481 1485 1490 1493 1497 1499 1502 1504 1506 1508 1509 1509 1510 1509 1508 1508 1508 1507 1506 1504 1503 1502 1501 1499 1498 1495 1492 1490 1487
1430 1432 1435 1438 1442 1444 1446 1448 1453 1457 1460 1463 1467 1471 1476 1481 1485 1489 1492 1495 1498 1501 1503 1505 1505 1506 1506 1506 1505 1504 1503 1503 1502 1501 1498 1498 1497 1495 1493 1490 1487 1484 1481
1424 1426 1428 1430 1434 1437 1439 1442 1446 1450 1453 1456 1460 1465 1470 1475 1480 1484 1488 1491 1494 1497 1499 1501 1502 1503 1503 1502 1501 1501 1500 1500 1499 1498 1495 1492 1489 1487 1486 1484 1480 1478 1475